Time,TemperatureF,DewpointF,PressureIn,WindDirection,WindDirectionDegrees,WindSpeedMPH,WindSpeedGustMPH,Humidity,HourlyPrecipIn,Conditions,Clouds,dailyrainin,SolarRadiationWatts/m^2,SoftwareType,DateUTC
2013-08-06 00:01:00,88.5,61.1,29.75,SSE,150,6.0,7.0,40,0.00,,---,0.00,0.00,VWS V14.01,2013-08-06 05:01:00,
2013-08-06 00:06:00,88.3,61.6,29.75,SE,146,5.0,11.0,41,0.00,,---,0.00,0.00,VWS V14.01,2013-08-06 05:06:00,
2013-08-06 00:11:00,88.1,61.5,29.75,SSE,155,7.0,12.0,41,0.00,,---,0.00,0.00,VWS V14.01,2013-08-06 05:11:00,
2013-08-06 00:16:00,88.0,61.4,29.75,SSE,159,10.0,13.0,41,0.00,,---,0.00,0.00,VWS V14.01,2013-08-06 05:16:00,
2013-08-06 00:21:00,87.9,61.3,29.75,SSE,162,7.0,15.0,41,0.00,,---,0.00,0.00,VWS V14.01,2013-08-06 05:21:00,
2013-08-06 00:26:00,87.8,61.2,29.75,SSE,152,11.0,15.0,41,0.00,,---,0.00,0.00,VWS V14.01,2013-08-06 05:26:00,
2013-08-06 00:31:00,87.7,61.1,29.75,SSE,152,8.0,9.0,41,0.00,,---,0.00,0.00,VWS V14.01,2013-08-06 05:31:00,
2013-08-06 00:36:00,87.5,60.9,29.75,SSE,150,9.0,14.0,41,0.00,,---,0.00,0.00,VWS V14.01,2013-08-06 05:36:00,
2013-08-06 00:41:00,87.3,61.4,29.75,South,173,12.0,14.0,42,0.00,,---,0.00,0.00,VWS V14.01,2013-08-06 05:41:00,
2013-08-06 00:46:00,87.2,61.3,29.74,SSE,157,9.0,14.0,42,0.00,,---,0.00,0.00,VWS V14.01,2013-08-06 05:46:00,
2013-08-06 00:51:00,86.9,61.1,29.75,SSE,150,8.0,14.0,42,0.00,,---,0.00,0.00,VWS V14.01,2013-08-06 05:51:00,
2013-08-06 00:56:00,86.7,60.9,29.74,SSE,162,6.0,14.0,42,0.00,,---,0.00,0.00,VWS V14.01,2013-08-06 05:56:00,
2013-08-06 01:01:00,86.5,61.4,29.74,SSE,160,9.0,9.0,43,0.00,,---,0.00,0.00,VWS V14.01,2013-08-06 06:01:00,
2013-08-06 01:06:00,86.4,61.3,29.74,SSE,153,7.0,10.0,43,0.00,,---,0.00,0.00,VWS V14.01,2013-08-06 06:06:00,
2013-08-06 01:11:00,86.3,61.2,29.74,SSE,165,9.0,10.0,43,0.00,,---,0.00,0.00,VWS V14.01,2013-08-06 06:11:00,
2013-08-06 01:16:00,86.2,61.1,29.74,SSE,150,10.0,12.0,43,0.00,,---,0.00,0.00,VWS V14.01,2013-08-06 06:16:00,
2013-08-06 01:21:00,86.1,61.0,29.74,South,177,7.0,13.0,43,0.00,,---,0.00,0.00,VWS V14.01,2013-08-06 06:21:00,
2013-08-06 01:26:00,86.1,61.0,29.74,SSE,161,10.0,13.0,43,0.00,,---,0.00,0.00,VWS V14.01,2013-08-06 06:26:00,
2013-08-06 01:31:00,85.9,61.5,29.74,SE,146,7.0,7.0,44,0.00,,---,0.00,0.00,VWS V14.01,2013-08-06 06:31:00,
2013-08-06 01:36:00,85.7,61.3,29.74,SE,142,11.0,15.0,44,0.00,,---,0.00,0.00,VWS V14.01,2013-08-06 06:36:00,
2013-08-06 01:41:00,85.4,61.7,29.74,SSE,151,10.0,15.0,45,0.00,,---,0.00,0.00,VWS V14.01,2013-08-06 06:41:00,
2013-08-06 01:46:00,85.2,62.1,29.74,SSE,168,9.0,16.0,46,0.00,,---,0.00,0.00,VWS V14.01,2013-08-06 06:46:00,
2013-08-06 01:51:00,85.0,61.9,29.74,South,173,6.0,16.0,46,0.00,,---,0.00,0.00,VWS V14.01,2013-08-06 06:51:00,
2013-08-06 01:56:00,84.8,62.3,29.74,SSE,167,9.0,16.0,47,0.00,,---,0.00,0.00,VWS V14.01,2013-08-06 06:56:00,
2013-08-06 02:01:00,84.7,62.3,29.74,SSE,168,11.0,12.0,47,0.00,,---,0.00,0.00,VWS V14.01,2013-08-06 07:01:00,
2013-08-06 02:06:00,84.7,62.3,29.73,SSE,153,6.0,14.0,47,0.00,,---,0.00,0.00,VWS V14.01,2013-08-06 07:06:00,
2013-08-06 02:11:00,84.8,62.3,29.74,SE,146,10.0,14.0,47,0.00,,---,0.00,0.00,VWS V14.01,2013-08-06 07:11:00,
2013-08-06 02:16:00,85.0,62.5,29.74,South,179,7.0,14.0,47,0.00,,---,0.00,0.00,VWS V14.01,2013-08-06 07:16:00,
2013-08-06 02:21:00,85.2,62.1,29.74,South,188,5.0,14.0,46,0.00,,---,0.00,0.00,VWS V14.01,2013-08-06 07:21:00,
2013-08-06 02:26:00,85.3,62.2,29.74,South,173,8.0,14.0,46,0.00,,---,0.00,0.00,VWS V14.01,2013-08-06 07:26:00,
2013-08-06 02:31:00,85.4,62.3,29.74,SSE,163,6.0,6.0,46,0.00,,---,0.00,0.00,VWS V14.01,2013-08-06 07:31:00,
2013-08-06 02:36:00,85.3,62.2,29.74,South,171,5.0,12.0,46,0.00,,---,0.00,0.00,VWS V14.01,2013-08-06 07:36:00,
2013-08-06 02:41:00,85.1,62.0,29.74,South,170,5.0,13.0,46,0.00,,---,0.00,0.00,VWS V14.01,2013-08-06 07:41:00,
2013-08-06 02:46:00,85.0,61.9,29.74,SSE,150,5.0,13.0,46,0.00,,---,0.00,0.00,VWS V14.01,2013-08-06 07:46:00,
2013-08-06 02:51:00,84.8,62.3,29.73,South,177,9.0,13.0,47,0.00,,---,0.00,0.00,VWS V14.01,2013-08-06 07:51:00,
2013-08-06 02:56:00,84.6,62.2,29.73,South,171,7.0,13.0,47,0.00,,---,0.00,0.00,VWS V14.01,2013-08-06 07:56:00,
2013-08-06 03:01:00,84.4,62.0,29.73,South,175,6.0,6.0,47,0.00,,---,0.00,0.00,VWS V14.01,2013-08-06 08:01:00,
2013-08-06 03:06:00,84.2,62.4,29.72,SSE,161,6.0,13.0,48,0.00,,---,0.00,0.00,VWS V14.01,2013-08-06 08:06:00,
2013-08-06 03:11:00,84.1,62.3,29.72,SSE,148,7.0,13.0,48,0.00,,---,0.00,0.00,VWS V14.01,2013-08-06 08:11:00,
2013-08-06 03:16:00,83.9,62.1,29.72,SSE,168,11.0,13.0,48,0.00,,---,0.00,0.00,VWS V14.01,2013-08-06 08:16:00,
2013-08-06 03:21:00,83.9,62.1,29.72,SSE,167,6.0,13.0,48,0.00,,---,0.00,0.00,VWS V14.01,2013-08-06 08:21:00,
2013-08-06 03:26:00,83.7,62.0,29.72,SSE,156,10.0,13.0,48,0.00,,---,0.00,0.00,VWS V14.01,2013-08-06 08:26:00,
2013-08-06 03:31:00,83.7,62.5,29.72,South,181,8.0,10.0,49,0.00,,---,0.00,0.00,VWS V14.01,2013-08-06 08:31:00,
2013-08-06 03:36:00,83.6,62.4,29.72,SSE,165,8.0,14.0,49,0.00,,---,0.00,0.00,VWS V14.01,2013-08-06 08:36:00,
2013-08-06 03:41:00,83.5,62.3,29.72,SSE,153,10.0,14.0,49,0.00,,---,0.00,0.00,VWS V14.01,2013-08-06 08:41:00,
2013-08-06 03:46:00,83.4,62.3,29.72,South,175,7.0,14.0,49,0.00,,---,0.00,0.00,VWS V14.01,2013-08-06 08:46:00,
2013-08-06 03:51:00,83.3,62.2,29.72,South,180,9.0,14.0,49,0.00,,---,0.00,0.00,VWS V14.01,2013-08-06 08:51:00,
2013-08-06 03:56:00,83.3,62.2,29.72,South,184,8.0,14.0,49,0.00,,---,0.00,0.00,VWS V14.01,2013-08-06 08:56:00,
2013-08-06 04:01:00,83.2,62.1,29.72,SSW,200,4.0,14.0,49,0.00,,---,0.00,0.00,VWS V14.01,2013-08-06 09:01:00,
2013-08-06 04:06:00,83.1,62.5,29.73,SSE,165,4.0,8.0,50,0.00,,---,0.00,0.00,VWS V14.01,2013-08-06 09:06:00,
2013-08-06 04:11:00,82.9,62.4,29.73,South,180,5.0,10.0,50,0.00,,---,0.00,0.00,VWS V14.01,2013-08-06 09:11:00,
2013-08-06 04:16:00,82.7,62.2,29.73,SSE,167,3.0,10.0,50,0.00,,---,0.00,0.00,VWS V14.01,2013-08-06 09:16:00,
2013-08-06 04:21:00,82.4,62.5,29.73,SSE,153,5.0,10.0,51,0.00,,---,0.00,0.00,VWS V14.01,2013-08-06 09:21:00,
2013-08-06 04:26:00,82.1,62.2,29.73,SSE,151,5.0,10.0,51,0.00,,---,0.00,0.00,VWS V14.01,2013-08-06 09:26:00,
2013-08-06 04:31:00,81.7,62.4,29.73,South,171,5.0,5.0,52,0.00,,---,0.00,0.00,VWS V14.01,2013-08-06 09:31:00,
2013-08-06 04:36:00,81.4,62.1,29.73,SSE,160,4.0,8.0,52,0.00,,---,0.00,0.00,VWS V14.01,2013-08-06 09:36:00,
2013-08-06 04:41:00,81.1,62.4,29.73,SSE,148,5.0,8.0,53,0.00,,---,0.00,0.00,VWS V14.01,2013-08-06 09:41:00,
2013-08-06 04:46:00,80.8,62.1,29.73,SSE,166,7.0,8.0,53,0.00,,---,0.00,0.00,VWS V14.01,2013-08-06 09:46:00,
2013-08-06 04:51:00,80.6,62.4,29.73,South,175,5.0,10.0,54,0.00,,---,0.00,0.00,VWS V14.01,2013-08-06 09:51:00,
2013-08-06 04:56:00,80.5,62.3,29.73,South,180,5.0,12.0,54,0.00,,---,0.00,0.00,VWS V14.01,2013-08-06 09:56:00,
2013-08-06 05:01:00,80.4,62.2,29.73,SSE,165,5.0,12.0,54,0.00,,---,0.00,0.00,VWS V14.01,2013-08-06 10:01:00,
2013-08-06 05:06:00,80.5,61.8,29.73,SSE,155,9.0,9.0,53,0.00,,---,0.00,0.00,VWS V14.01,2013-08-06 10:06:00,
2013-08-06 05:11:00,80.6,61.9,29.73,South,173,8.0,10.0,53,0.00,,---,0.00,0.00,VWS V14.01,2013-08-06 10:11:00,
2013-08-06 05:16:00,80.6,61.9,29.73,SSE,162,6.0,10.0,53,0.00,,---,0.00,0.00,VWS V14.01,2013-08-06 10:16:00,
2013-08-06 05:21:00,80.6,61.9,29.73,South,178,7.0,10.0,53,0.00,,---,0.00,0.00,VWS V14.01,2013-08-06 10:21:00,
2013-08-06 05:26:00,80.6,61.9,29.74,SSE,150,5.0,10.0,53,0.00,,---,0.00,0.00,VWS V14.01,2013-08-06 10:26:00,
2013-08-06 05:31:00,80.5,61.8,29.74,SSE,160,3.0,10.0,53,0.00,,---,0.00,0.00,VWS V14.01,2013-08-06 10:31:00,
2013-08-06 05:36:00,80.3,61.6,29.74,SSE,165,3.0,6.0,53,0.00,,---,0.00,0.00,VWS V14.01,2013-08-06 10:36:00,
2013-08-06 05:41:00,80.1,62.0,29.74,SSW,200,3.0,6.0,54,0.00,,---,0.00,0.00,VWS V14.01,2013-08-06 10:41:00,
2013-08-06 05:46:00,79.8,61.7,29.74,SSE,165,2.0,6.0,54,0.00,,---,0.00,0.00,VWS V14.01,2013-08-06 10:46:00,
2013-08-06 05:51:00,79.6,62.0,29.75,SSE,161,3.0,6.0,55,0.00,,---,0.00,0.00,VWS V14.01,2013-08-06 10:51:00,
2013-08-06 05:56:00,79.4,61.8,29.75,South,184,3.0,6.0,55,0.00,,---,0.00,0.00,VWS V14.01,2013-08-06 10:56:00,
2013-08-06 06:01:00,79.1,62.1,29.75,SSE,165,2.0,6.0,56,0.00,,---,0.00,0.00,VWS V14.01,2013-08-06 11:01:00,
2013-08-06 06:06:00,79.0,62.0,29.75,SSE,159,3.0,4.0,56,0.00,,---,0.00,0.00,VWS V14.01,2013-08-06 11:06:00,
2013-08-06 06:11:00,78.8,61.8,29.75,South,176,3.0,4.0,56,0.00,,---,0.00,0.00,VWS V14.01,2013-08-06 11:11:00,
2013-08-06 06:16:00,78.5,61.5,29.74,South,179,3.0,5.0,56,0.00,,---,0.00,0.00,VWS V14.01,2013-08-06 11:16:00,
2013-08-06 06:20:00,78.3,61.3,29.74,South,184,3.0,6.0,56,0.00,,---,0.00,0.00,VWS V14.01,2013-08-06 11:20:00,
2013-08-06 06:25:00,78.2,61.2,29.74,South,184,2.0,6.0,56,0.00,,---,0.00,0.00,VWS V14.01,2013-08-06 11:25:00,
2013-08-06 06:30:00,78.2,61.7,29.75,SSW,194,2.0,6.0,57,0.00,,---,0.00,0.00,VWS V14.01,2013-08-06 11:30:00,
2013-08-06 06:35:00,78.0,61.5,29.74,SSW,193,2.0,4.0,57,0.00,,---,0.00,0.00,VWS V14.01,2013-08-06 11:35:00,
2013-08-06 06:41:00,77.8,61.4,29.74,SSW,195,3.0,4.0,57,0.00,,---,0.00,0.00,VWS V14.01,2013-08-06 11:41:00,
2013-08-06 06:45:00,77.6,61.7,29.75,South,180,5.0,5.0,58,0.00,,---,0.00,0.00,VWS V14.01,2013-08-06 11:45:00,
2013-08-06 06:50:00,77.3,61.4,29.74,South,186,2.0,5.0,58,0.00,,---,0.00,0.00,VWS V14.01,2013-08-06 11:50:00,
2013-08-06 06:55:00,76.9,61.5,29.75,South,174,2.0,5.0,59,0.00,,---,0.00,5.00,VWS V14.01,2013-08-06 11:55:00,
2013-08-06 07:00:00,76.6,61.7,29.75,South,187,3.0,8.0,60,0.00,,---,0.00,9.00,VWS V14.01,2013-08-06 12:00:00,
2013-08-06 07:05:00,76.4,61.5,29.75,South,169,3.0,6.0,60,0.00,,---,0.00,12.00,VWS V14.01,2013-08-06 12:05:00,
2013-08-06 07:10:00,76.4,61.5,29.75,South,185,2.0,6.0,60,0.00,,---,0.00,14.00,VWS V14.01,2013-08-06 12:10:00,
2013-08-06 07:15:00,76.4,61.5,29.75,SSE,167,3.0,6.0,60,0.00,,---,0.00,21.00,VWS V14.01,2013-08-06 12:15:00,
2013-08-06 07:20:00,76.6,61.7,29.75,SSW,196,5.0,6.0,60,0.00,,---,0.00,28.00,VWS V14.01,2013-08-06 12:20:00,
2013-08-06 07:25:00,76.7,61.8,29.75,South,171,6.0,6.0,60,0.00,,---,0.00,39.00,VWS V14.01,2013-08-06 12:25:00,
2013-08-06 07:30:00,76.9,62.0,29.75,SSE,157,5.0,6.0,60,0.00,,---,0.00,51.00,VWS V14.01,2013-08-06 12:30:00,
2013-08-06 07:35:00,77.1,61.7,29.76,South,171,5.0,7.0,59,0.00,,---,0.00,65.00,VWS V14.01,2013-08-06 12:35:00,
2013-08-06 07:40:00,77.3,61.9,29.76,South,188,4.0,7.0,59,0.00,,---,0.00,81.00,VWS V14.01,2013-08-06 12:40:00,
2013-08-06 07:45:00,77.6,61.7,29.75,South,180,3.0,7.0,58,0.00,,---,0.00,98.00,VWS V14.01,2013-08-06 12:45:00,
2013-08-06 07:50:00,78.0,62.0,29.76,SSE,157,4.0,7.0,58,0.00,,---,0.00,116.00,VWS V14.01,2013-08-06 12:50:00,
2013-08-06 07:55:00,78.6,62.1,29.76,SSE,165,4.0,7.0,57,0.00,,---,0.00,132.00,VWS V14.01,2013-08-06 12:55:00,
2013-08-06 08:00:00,79.1,62.1,29.76,South,186,5.0,8.0,56,0.00,,---,0.00,151.00,VWS V14.01,2013-08-06 13:00:00,
2013-08-06 08:05:00,79.7,62.1,29.76,SSW,197,5.0,7.0,55,0.00,,---,0.00,172.00,VWS V14.01,2013-08-06 13:05:00,
2013-08-06 08:10:00,80.2,62.1,29.76,South,181,4.0,9.0,54,0.00,,---,0.00,192.00,VWS V14.01,2013-08-06 13:10:00,
2013-08-06 08:15:00,80.7,62.0,29.76,South,175,7.0,9.0,53,0.00,,---,0.00,211.00,VWS V14.01,2013-08-06 13:15:00,
2013-08-06 08:20:00,81.2,61.9,29.76,SSW,192,7.0,9.0,52,0.00,,---,0.00,229.00,VWS V14.01,2013-08-06 13:20:00,
2013-08-06 08:25:00,81.8,61.9,29.76,SSW,209,4.0,11.0,51,0.00,,---,0.00,244.00,VWS V14.01,2013-08-06 13:25:00,
2013-08-06 08:30:00,82.4,62.5,29.76,SSW,194,3.0,11.0,51,0.00,,---,0.00,262.00,VWS V14.01,2013-08-06 13:30:00,
2013-08-06 08:35:00,83.0,61.9,29.76,SSW,213,8.0,9.0,49,0.00,,---,0.00,279.00,VWS V14.01,2013-08-06 13:35:00,
2013-08-06 08:40:00,83.6,62.4,29.76,South,186,9.0,12.0,49,0.00,,---,0.00,297.00,VWS V14.01,2013-08-06 13:40:00,
2013-08-06 08:45:00,84.3,62.5,29.76,SSE,161,12.0,14.0,48,0.00,,---,0.00,316.00,VWS V14.01,2013-08-06 13:45:00,
2013-08-06 08:50:00,84.8,62.3,29.76,SW,219,9.0,15.0,47,0.00,,---,0.00,332.00,VWS V14.01,2013-08-06 13:50:00,
2013-08-06 08:55:00,85.4,62.3,29.76,SSE,153,6.0,15.0,46,0.00,,---,0.00,352.00,VWS V14.01,2013-08-06 13:55:00,
2013-08-06 09:00:00,85.9,62.7,29.76,SSW,197,8.0,15.0,46,0.00,,---,0.00,366.00,VWS V14.01,2013-08-06 14:00:00,
2013-08-06 09:05:00,86.4,62.6,29.76,SW,216,8.0,18.0,45,0.00,,---,0.00,383.00,VWS V14.01,2013-08-06 14:05:00,
2013-08-06 09:10:00,87.0,63.1,29.76,SSE,167,6.0,18.0,45,0.00,,---,0.00,399.00,VWS V14.01,2013-08-06 14:10:00,
2013-08-06 09:15:00,87.6,63.0,29.76,SSE,159,6.0,18.0,44,0.00,,---,0.00,415.00,VWS V14.01,2013-08-06 14:15:00,
2013-08-06 09:20:00,87.9,63.3,29.77,South,190,13.0,18.0,44,0.00,,---,0.00,432.00,VWS V14.01,2013-08-06 14:20:00,
2013-08-06 09:25:00,88.0,62.7,29.77,South,176,9.0,18.0,43,0.00,,---,0.00,450.00,VWS V14.01,2013-08-06 14:25:00,
2013-08-06 09:30:00,88.1,63.5,29.76,SSW,213,7.0,18.0,44,0.00,,---,0.00,468.00,VWS V14.01,2013-08-06 14:30:00,
2013-08-06 09:35:00,88.5,63.8,29.76,South,184,6.0,12.0,44,0.00,,---,0.00,482.00,VWS V14.01,2013-08-06 14:35:00,
2013-08-06 09:40:00,88.8,64.1,29.76,SSE,159,13.0,16.0,44,0.00,,---,0.00,499.00,VWS V14.01,2013-08-06 14:40:00,
2013-08-06 09:45:00,89.2,63.8,29.76,SW,222,14.0,18.0,43,0.00,,---,0.00,517.00,VWS V14.01,2013-08-06 14:45:00,
2013-08-06 09:50:00,89.5,64.7,29.76,SSW,203,7.0,18.0,44,0.00,,---,0.00,533.00,VWS V14.01,2013-08-06 14:50:00,
2013-08-06 09:55:00,89.7,64.2,29.76,SSW,196,6.0,19.0,43,0.00,,---,0.00,548.00,VWS V14.01,2013-08-06 14:55:00,
2013-08-06 10:00:00,90.0,64.5,29.76,SSW,206,8.0,19.0,43,0.00,,---,0.00,564.00,VWS V14.01,2013-08-06 15:00:00,
2013-08-06 10:05:00,90.4,64.9,29.76,South,183,9.0,20.0,43,0.00,,---,0.00,578.00,VWS V14.01,2013-08-06 15:05:00,
2013-08-06 10:10:00,90.7,65.2,29.75,South,178,7.0,20.0,43,0.00,,---,0.00,594.00,VWS V14.01,2013-08-06 15:10:00,
2013-08-06 10:15:00,91.2,64.9,29.75,SSW,205,15.0,21.0,42,0.00,,---,0.00,608.00,VWS V14.01,2013-08-06 15:15:00,
2013-08-06 10:20:00,91.4,65.1,29.76,SW,222,13.0,21.0,42,0.00,,---,0.00,622.00,VWS V14.01,2013-08-06 15:20:00,
2013-08-06 10:25:00,91.6,65.3,29.76,SSW,211,9.0,21.0,42,0.00,,---,0.00,636.00,VWS V14.01,2013-08-06 15:25:00,
2013-08-06 10:30:00,91.9,64.9,29.76,South,174,12.0,21.0,41,0.00,,---,0.00,652.00,VWS V14.01,2013-08-06 15:30:00,
2013-08-06 10:35:00,92.2,65.1,29.76,SSE,163,11.0,17.0,41,0.00,,---,0.00,668.00,VWS V14.01,2013-08-06 15:35:00,
2013-08-06 10:40:00,92.5,65.4,29.76,SW,226,8.0,18.0,41,0.00,,---,0.00,677.00,VWS V14.01,2013-08-06 15:40:00,
2013-08-06 10:45:00,92.7,65.6,29.75,SSE,166,6.0,18.0,41,0.00,,---,0.00,693.00,VWS V14.01,2013-08-06 15:45:00,
2013-08-06 10:50:00,93.4,65.5,29.75,South,169,6.0,18.0,40,0.00,,---,0.00,708.00,VWS V14.01,2013-08-06 15:50:00,
2013-08-06 10:55:00,93.7,65.0,29.75,SW,221,9.0,18.0,39,0.00,,---,0.00,721.00,VWS V14.01,2013-08-06 15:55:00,
2013-08-06 11:00:00,94.0,65.3,29.75,South,191,5.0,19.0,39,0.00,,---,0.00,735.00,VWS V14.01,2013-08-06 16:00:00,
2013-08-06 11:05:00,94.6,64.3,29.75,SW,234,13.0,20.0,37,0.00,,---,0.00,749.00,VWS V14.01,2013-08-06 16:05:00,
2013-08-06 11:10:00,94.6,64.3,29.75,SW,227,12.0,20.0,37,0.00,,---,0.00,756.00,VWS V14.01,2013-08-06 16:10:00,
2013-08-06 11:15:00,94.9,64.6,29.75,SSW,212,10.0,20.0,37,0.00,,---,0.00,768.00,VWS V14.01,2013-08-06 16:15:00,
2013-08-06 11:20:00,95.2,64.1,29.75,SW,225,13.0,20.0,36,0.00,,---,0.00,779.00,VWS V14.01,2013-08-06 16:20:00,
2013-08-06 11:25:00,95.4,65.0,29.75,WSW,237,16.0,20.0,37,0.00,,---,0.00,793.00,VWS V14.01,2013-08-06 16:25:00,
2013-08-06 11:30:00,95.7,65.3,29.75,South,184,9.0,20.0,37,0.00,,---,0.00,803.00,VWS V14.01,2013-08-06 16:30:00,
2013-08-06 11:35:00,96.2,64.9,29.75,SSW,196,9.0,16.0,36,0.00,,---,0.00,816.00,VWS V14.01,2013-08-06 16:35:00,
2013-08-06 11:40:00,96.4,65.1,29.75,South,175,8.0,16.0,36,0.00,,---,0.00,826.00,VWS V14.01,2013-08-06 16:40:00,
2013-08-06 11:45:00,96.7,65.4,29.75,South,178,12.0,16.0,36,0.00,,---,0.00,835.00,VWS V14.01,2013-08-06 16:45:00,
2013-08-06 11:50:00,96.8,65.5,29.75,SSE,167,10.0,16.0,36,0.00,,---,0.00,844.00,VWS V14.01,2013-08-06 16:50:00,
2013-08-06 11:55:00,97.1,64.9,29.75,SSE,162,6.0,16.0,35,0.00,,---,0.00,856.00,VWS V14.01,2013-08-06 16:55:00,
2013-08-06 12:00:00,97.4,66.0,29.75,SSE,161,7.0,16.0,36,0.00,,---,0.00,863.00,VWS V14.01,2013-08-06 17:00:00,
2013-08-06 12:05:00,97.7,66.2,29.75,South,186,7.0,16.0,36,0.00,,---,0.00,872.00,VWS V14.01,2013-08-06 17:05:00,
2013-08-06 12:10:00,98.3,66.0,29.75,SSW,203,10.0,16.0,35,0.00,,---,0.00,882.00,VWS V14.01,2013-08-06 17:10:00,
2013-08-06 12:15:00,98.7,65.5,29.74,SSE,159,10.0,20.0,34,0.00,,---,0.00,891.00,VWS V14.01,2013-08-06 17:15:00,
2013-08-06 12:20:00,98.5,66.1,29.74,South,182,7.0,20.0,35,0.00,,---,0.00,893.00,VWS V14.01,2013-08-06 17:20:00,
2013-08-06 12:25:00,98.8,65.6,29.74,South,191,7.0,20.0,34,0.00,,---,0.00,902.00,VWS V14.01,2013-08-06 17:25:00,
2013-08-06 12:27:00,98.8,64.7,29.74,SSW,192,5.0,20.0,33,0.00,,---,0.00,904.00,VWS V14.01,2013-08-06 17:27:00,
2013-08-06 12:32:00,99.5,66.2,29.74,SSW,194,7.0,9.0,34,0.00,,---,0.00,909.00,VWS V14.01,2013-08-06 17:32:00,
2013-08-06 12:37:00,100.3,67.7,29.74,South,176,9.0,13.0,35,0.00,,---,0.00,918.00,VWS V14.01,2013-08-06 17:37:00,
2013-08-06 12:42:00,100.5,67.1,29.74,SSE,151,12.0,14.0,34,0.00,,---,0.00,921.00,VWS V14.01,2013-08-06 17:42:00,
2013-08-06 12:47:00,100.7,66.4,29.74,SSW,200,9.0,16.0,33,0.00,,---,0.00,926.00,VWS V14.01,2013-08-06 17:47:00,
2013-08-06 12:52:00,100.5,67.1,29.73,SSE,163,4.0,16.0,34,0.00,,---,0.00,933.00,VWS V14.01,2013-08-06 17:52:00,
2013-08-06 12:57:00,100.7,66.4,29.73,SSE,158,9.0,16.0,33,0.00,,---,0.00,942.00,VWS V14.01,2013-08-06 17:57:00,
2013-08-06 13:02:00,100.8,66.4,29.73,SSE,159,10.0,11.0,33,0.00,,---,0.00,939.00,VWS V14.01,2013-08-06 18:02:00,
2013-08-06 13:07:00,101.0,67.5,29.73,South,169,10.0,16.0,34,0.00,,---,0.00,944.00,VWS V14.01,2013-08-06 18:07:00,
2013-08-06 13:12:00,101.1,65.8,29.72,South,170,7.0,16.0,32,0.00,,---,0.00,939.00,VWS V14.01,2013-08-06 18:12:00,
2013-08-06 13:17:00,101.4,66.1,29.72,ESE,119,12.0,17.0,32,0.00,,---,0.00,956.00,VWS V14.01,2013-08-06 18:17:00,
2013-08-06 13:22:00,101.6,64.4,29.72,SSE,154,9.0,17.0,30,0.00,,---,0.00,958.00,VWS V14.01,2013-08-06 18:22:00,
2013-08-06 13:27:00,101.6,66.3,29.72,SSE,159,11.0,17.0,32,0.00,,---,0.00,960.00,VWS V14.01,2013-08-06 18:27:00,
2013-08-06 13:32:00,101.5,63.3,29.72,SSE,149,9.0,15.0,29,0.00,,---,0.00,969.00,VWS V14.01,2013-08-06 18:32:00,
2013-08-06 13:37:00,101.9,65.6,29.72,South,180,12.0,15.0,31,0.00,,---,0.00,960.00,VWS V14.01,2013-08-06 18:37:00,
2013-08-06 13:42:00,102.0,63.8,29.72,WSW,242,12.0,16.0,29,0.00,,---,0.00,972.00,VWS V14.01,2013-08-06 18:42:00,
2013-08-06 13:47:00,102.8,63.5,29.71,SW,233,15.0,17.0,28,0.00,,---,0.00,960.00,VWS V14.01,2013-08-06 18:47:00,
2013-08-06 13:52:00,103.4,59.6,29.71,South,188,9.0,17.0,24,0.00,,---,0.00,969.00,VWS V14.01,2013-08-06 18:52:00,
2013-08-06 13:57:00,103.3,58.3,29.71,SW,226,11.0,17.0,23,0.00,,---,0.00,963.00,VWS V14.01,2013-08-06 18:57:00,
2013-08-06 14:02:00,103.3,63.9,29.71,South,190,13.0,14.0,28,0.00,,---,0.00,962.00,VWS V14.01,2013-08-06 19:02:00,
2013-08-06 14:07:00,103.7,63.2,29.71,SSE,153,10.0,17.0,27,0.00,,---,0.00,960.00,VWS V14.01,2013-08-06 19:07:00,
2013-08-06 14:12:00,103.4,62.9,29.71,SSW,199,9.0,17.0,27,0.00,,---,0.00,953.00,VWS V14.01,2013-08-06 19:12:00,
2013-08-06 14:17:00,103.6,60.9,29.71,SSE,165,11.0,17.0,25,0.00,,---,0.00,949.00,VWS V14.01,2013-08-06 19:17:00,
2013-08-06 14:22:00,103.7,59.8,29.71,SSE,157,13.0,17.0,24,0.00,,---,0.00,953.00,VWS V14.01,2013-08-06 19:22:00,
2013-08-06 14:27:00,103.8,62.2,29.70,South,188,10.0,17.0,26,0.00,,---,0.00,939.00,VWS V14.01,2013-08-06 19:27:00,
2013-08-06 14:32:00,103.7,61.0,29.70,SW,221,8.0,14.0,25,0.00,,---,0.00,942.00,VWS V14.01,2013-08-06 19:32:00,
2013-08-06 14:37:00,103.7,61.0,29.70,South,184,8.0,17.0,25,0.00,,---,0.00,939.00,VWS V14.01,2013-08-06 19:37:00,
2013-08-06 14:42:00,104.3,63.7,29.69,South,170,6.0,17.0,27,0.00,,---,0.00,928.00,VWS V14.01,2013-08-06 19:42:00,
2013-08-06 14:47:00,104.8,63.0,29.69,SSW,199,7.0,17.0,26,0.00,,---,0.00,925.00,VWS V14.01,2013-08-06 19:47:00,
2013-08-06 14:52:00,104.8,63.0,29.69,SSE,152,12.0,19.0,26,0.00,,---,0.00,923.00,VWS V14.01,2013-08-06 19:52:00,
2013-08-06 14:57:00,104.6,60.6,29.69,SSW,196,7.0,20.0,24,0.00,,---,0.00,919.00,VWS V14.01,2013-08-06 19:57:00,
2013-08-06 15:02:00,104.8,60.8,29.68,SSW,211,9.0,13.0,24,0.00,,---,0.00,916.00,VWS V14.01,2013-08-06 20:02:00,
2013-08-06 15:07:00,104.8,60.8,29.68,SSW,192,7.0,16.0,24,0.00,,---,0.00,909.00,VWS V14.01,2013-08-06 20:07:00,
2013-08-06 15:12:00,104.9,60.8,29.68,SSE,152,10.0,19.0,24,0.00,,---,0.00,893.00,VWS V14.01,2013-08-06 20:12:00,
2013-08-06 15:17:00,105.3,62.3,29.68,SSE,152,7.0,19.0,25,0.00,,---,0.00,889.00,VWS V14.01,2013-08-06 20:17:00,
2013-08-06 15:22:00,105.3,61.2,29.67,South,184,7.0,19.0,24,0.00,,---,0.00,882.00,VWS V14.01,2013-08-06 20:22:00,
2013-08-06 15:27:00,105.4,61.3,29.67,South,182,8.0,19.0,24,0.00,,---,0.00,877.00,VWS V14.01,2013-08-06 20:27:00,
2013-08-06 15:32:00,105.3,61.2,29.67,South,175,6.0,10.0,24,0.00,,---,0.00,868.00,VWS V14.01,2013-08-06 20:32:00,
2013-08-06 15:37:00,105.3,60.0,29.67,South,177,10.0,12.0,23,0.00,,---,0.00,858.00,VWS V14.01,2013-08-06 20:37:00,
2013-08-06 15:42:00,105.2,59.9,29.67,South,181,6.0,15.0,23,0.00,,---,0.00,849.00,VWS V14.01,2013-08-06 20:42:00,
2013-08-06 15:47:00,105.7,60.3,29.66,SSW,193,4.0,15.0,23,0.00,,---,0.00,835.00,VWS V14.01,2013-08-06 20:47:00,
2013-08-06 15:52:00,106.1,61.8,29.66,South,178,8.0,15.0,24,0.00,,---,0.00,830.00,VWS V14.01,2013-08-06 20:52:00,
2013-08-06 15:57:00,106.2,61.9,29.66,South,176,8.0,17.0,24,0.00,,---,0.00,821.00,VWS V14.01,2013-08-06 20:57:00,
2013-08-06 16:02:00,106.2,60.7,29.66,SSE,162,8.0,12.0,23,0.00,,---,0.00,810.00,VWS V14.01,2013-08-06 21:02:00,
2013-08-06 16:07:00,106.4,62.1,29.65,SW,221,8.0,12.0,24,0.00,,---,0.00,800.00,VWS V14.01,2013-08-06 21:07:00,
2013-08-06 16:12:00,106.3,60.8,29.65,SSW,213,7.0,16.0,23,0.00,,---,0.00,788.00,VWS V14.01,2013-08-06 21:12:00,
2013-08-06 16:17:00,105.8,60.4,29.65,SSE,157,5.0,16.0,23,0.00,,---,0.00,775.00,VWS V14.01,2013-08-06 21:17:00,
2013-08-06 16:22:00,105.7,60.3,29.65,South,169,7.0,16.0,23,0.00,,---,0.00,765.00,VWS V14.01,2013-08-06 21:22:00,
2013-08-06 16:27:00,105.9,60.5,29.65,South,175,6.0,16.0,23,0.00,,---,0.00,749.00,VWS V14.01,2013-08-06 21:27:00,
2013-08-06 16:32:00,106.2,60.7,29.64,SE,146,7.0,11.0,23,0.00,,---,0.00,737.00,VWS V14.01,2013-08-06 21:32:00,
2013-08-06 16:37:00,106.3,60.8,29.64,SSW,201,9.0,18.0,23,0.00,,---,0.00,724.00,VWS V14.01,2013-08-06 21:37:00,
2013-08-06 16:42:00,106.3,59.6,29.65,SSW,193,9.0,18.0,22,0.00,,---,0.00,710.00,VWS V14.01,2013-08-06 21:42:00,
2013-08-06 16:46:00,106.3,60.8,29.64,South,182,10.0,18.0,23,0.00,,---,0.00,694.00,VWS V14.01,2013-08-06 21:46:00,
2013-08-06 16:51:00,106.1,59.4,29.64,South,177,6.0,18.0,22,0.00,,---,0.00,684.00,VWS V14.01,2013-08-06 21:51:00,
2013-08-06 16:56:00,106.2,59.5,29.64,South,174,10.0,18.0,22,0.00,,---,0.00,673.00,VWS V14.01,2013-08-06 21:56:00,
2013-08-06 17:01:00,106.4,59.7,29.64,South,184,5.0,9.0,22,0.00,,---,0.00,649.00,VWS V14.01,2013-08-06 22:01:00,
2013-08-06 17:06:00,106.5,61.0,29.63,South,173,10.0,11.0,23,0.00,,---,0.00,638.00,VWS V14.01,2013-08-06 22:06:00,
2013-08-06 17:11:00,106.4,60.9,29.63,SSE,164,6.0,14.0,23,0.00,,---,0.00,626.00,VWS V14.01,2013-08-06 22:11:00,
2013-08-06 17:17:00,106.6,59.8,29.63,SSW,211,7.0,14.0,22,0.00,,---,0.00,608.00,VWS V14.01,2013-08-06 22:17:00,
2013-08-06 17:21:00,106.7,58.6,29.63,SW,216,7.0,14.0,21,0.00,,---,0.00,591.00,VWS V14.01,2013-08-06 22:21:00,
2013-08-06 17:27:00,106.6,59.8,29.63,South,180,9.0,14.0,22,0.00,,---,0.00,578.00,VWS V14.01,2013-08-06 22:27:00,
2013-08-06 17:32:00,106.4,59.7,29.62,South,170,7.0,15.0,22,0.00,,---,0.00,561.00,VWS V14.01,2013-08-06 22:32:00,
2013-08-06 17:37:00,106.3,58.3,29.63,SSE,167,7.0,15.0,21,0.00,,---,0.00,545.00,VWS V14.01,2013-08-06 22:37:00,
2013-08-06 17:42:00,106.0,58.0,29.62,SSE,157,7.0,16.0,21,0.00,,---,0.00,527.00,VWS V14.01,2013-08-06 22:42:00,
2013-08-06 17:47:00,106.0,58.0,29.63,ESE,109,3.0,16.0,21,0.00,,---,0.00,512.00,VWS V14.01,2013-08-06 22:47:00,
2013-08-06 17:52:00,106.3,58.3,29.62,South,171,8.0,17.0,21,0.00,,---,0.00,492.00,VWS V14.01,2013-08-06 22:52:00,
2013-08-06 17:56:00,106.1,59.4,29.62,SSE,163,10.0,17.0,22,0.00,,---,0.00,482.00,VWS V14.01,2013-08-06 22:56:00,
2013-08-06 18:01:00,105.9,57.9,29.62,SE,144,5.0,14.0,21,0.00,,---,0.00,459.00,VWS V14.01,2013-08-06 23:01:00,
2013-08-06 18:06:00,105.9,57.9,29.62,South,180,7.0,16.0,21,0.00,,---,0.00,446.00,VWS V14.01,2013-08-06 23:06:00,
2013-08-06 18:11:00,105.3,58.7,29.61,SE,143,7.0,17.0,22,0.00,,---,0.00,425.00,VWS V14.01,2013-08-06 23:11:00,
2013-08-06 18:16:00,105.4,60.1,29.61,SSE,154,10.0,17.0,23,0.00,,---,0.00,410.00,VWS V14.01,2013-08-06 23:16:00,
2013-08-06 18:21:00,105.2,58.7,29.61,SE,130,6.0,17.0,22,0.00,,---,0.00,392.00,VWS V14.01,2013-08-06 23:21:00,
2013-08-06 18:26:00,105.1,58.6,29.61,SSE,156,9.0,17.0,22,0.00,,---,0.00,373.00,VWS V14.01,2013-08-06 23:26:00,
2013-08-06 18:31:00,104.9,59.7,29.61,SSE,163,5.0,13.0,23,0.00,,---,0.00,355.00,VWS V14.01,2013-08-06 23:31:00,
2013-08-06 18:36:00,104.8,59.6,29.61,SSE,161,7.0,17.0,23,0.00,,---,0.00,339.00,VWS V14.01,2013-08-06 23:36:00,
2013-08-06 18:41:00,104.3,60.3,29.61,SE,138,7.0,20.0,24,0.00,,---,0.00,318.00,VWS V14.01,2013-08-06 23:41:00,
2013-08-06 18:46:00,104.1,60.2,29.61,SSE,165,8.0,20.0,24,0.00,,---,0.00,302.00,VWS V14.01,2013-08-06 23:46:00,
2013-08-06 18:51:00,103.9,60.0,29.61,SSE,157,6.0,20.0,24,0.00,,---,0.00,288.00,VWS V14.01,2013-08-06 23:51:00,
2013-08-06 18:56:00,103.6,59.8,29.60,ESE,120,5.0,20.0,24,0.00,,---,0.00,267.00,VWS V14.01,2013-08-06 23:56:00,
2013-08-06 19:01:00,103.4,59.6,29.61,SE,132,4.0,9.0,24,0.00,,---,0.00,251.00,VWS V14.01,2013-08-07 00:01:00,
2013-08-06 19:06:00,103.2,59.4,29.60,SSE,162,6.0,14.0,24,0.00,,---,0.00,230.00,VWS V14.01,2013-08-07 00:06:00,
2013-08-06 19:11:00,103.0,60.4,29.60,SSE,163,17.0,17.0,25,0.00,,---,0.00,209.00,VWS V14.01,2013-08-07 00:11:00,
2013-08-06 19:16:00,102.8,60.2,29.60,SE,134,4.0,19.0,25,0.00,,---,0.00,190.00,VWS V14.01,2013-08-07 00:16:00,
2013-08-06 19:21:00,102.6,60.1,29.60,SSE,163,6.0,19.0,25,0.00,,---,0.00,172.00,VWS V14.01,2013-08-07 00:21:00,
2013-08-06 19:26:00,102.3,60.9,29.60,SE,134,4.0,19.0,26,0.00,,---,0.00,151.00,VWS V14.01,2013-08-07 00:26:00,
2013-08-06 19:31:00,101.9,60.6,29.60,SE,139,9.0,16.0,26,0.00,,---,0.00,134.00,VWS V14.01,2013-08-07 00:31:00,
2013-08-06 19:36:00,101.6,60.3,29.60,ESE,115,5.0,17.0,26,0.00,,---,0.00,114.00,VWS V14.01,2013-08-07 00:36:00,
2013-08-06 19:41:00,101.3,61.2,29.60,SSE,159,9.0,17.0,27,0.00,,---,0.00,97.00,VWS V14.01,2013-08-07 00:41:00,
2013-08-06 19:46:00,100.9,60.8,29.60,SSE,162,7.0,17.0,27,0.00,,---,0.00,72.00,VWS V14.01,2013-08-07 00:46:00,
2013-08-06 19:51:00,100.4,61.4,29.60,SSE,165,5.0,17.0,28,0.00,,---,0.00,67.00,VWS V14.01,2013-08-07 00:51:00,
2013-08-06 19:56:00,100.0,61.1,29.60,East,98,6.0,17.0,28,0.00,,---,0.00,51.00,VWS V14.01,2013-08-07 00:56:00,
2013-08-06 20:01:00,99.7,60.8,29.60,SSE,147,9.0,9.0,28,0.00,,---,0.00,26.00,VWS V14.01,2013-08-07 01:01:00,
2013-08-06 20:06:00,99.3,61.5,29.61,SSE,162,6.0,11.0,29,0.00,,---,0.00,25.00,VWS V14.01,2013-08-07 01:06:00,
2013-08-06 20:11:00,99.0,61.2,29.61,SE,136,5.0,12.0,29,0.00,,---,0.00,16.00,VWS V14.01,2013-08-07 01:11:00,
2013-08-06 20:16:00,98.6,60.9,29.61,SSE,165,5.0,14.0,29,0.00,,---,0.00,12.00,VWS V14.01,2013-08-07 01:16:00,
2013-08-06 20:21:00,98.2,61.5,29.61,SSE,162,4.0,14.0,30,0.00,,---,0.00,11.00,VWS V14.01,2013-08-07 01:21:00,
2013-08-06 20:26:00,97.9,61.2,29.61,SSE,156,10.0,14.0,30,0.00,,---,0.00,7.00,VWS V14.01,2013-08-07 01:26:00,
2013-08-06 20:31:00,97.6,61.0,29.61,SSE,161,4.0,8.0,30,0.00,,---,0.00,5.00,VWS V14.01,2013-08-07 01:31:00,
2013-08-06 20:36:00,97.2,61.5,29.62,South,180,9.0,9.0,31,0.00,,---,0.00,0.00,VWS V14.01,2013-08-07 01:36:00,
2013-08-06 20:41:00,96.7,61.1,29.62,SSE,167,6.0,11.0,31,0.00,,---,0.00,0.00,VWS V14.01,2013-08-07 01:41:00,
2013-08-06 20:46:00,96.5,61.0,29.62,SSW,197,7.0,15.0,31,0.00,,---,0.00,0.00,VWS V14.01,2013-08-07 01:46:00,
2013-08-06 20:51:00,96.3,60.8,29.62,SSE,147,3.0,15.0,31,0.00,,---,0.00,0.00,VWS V14.01,2013-08-07 01:51:00,
2013-08-06 20:56:00,95.9,61.3,29.63,SSE,161,5.0,15.0,32,0.00,,---,0.00,0.00,VWS V14.01,2013-08-07 01:56:00,
2013-08-06 21:01:00,95.5,61.0,29.63,ESE,113,2.0,6.0,32,0.00,,---,0.00,0.00,VWS V14.01,2013-08-07 02:01:00,
2013-08-06 21:06:00,95.3,60.8,29.63,South,169,8.0,10.0,32,0.00,,---,0.00,0.00,VWS V14.01,2013-08-07 02:06:00,
2013-08-06 21:11:00,95.2,61.6,29.64,SE,146,5.0,10.0,33,0.00,,---,0.00,0.00,VWS V14.01,2013-08-07 02:11:00,
2013-08-06 21:16:00,95.1,61.5,29.64,SE,146,4.0,12.0,33,0.00,,---,0.00,0.00,VWS V14.01,2013-08-07 02:16:00,
2013-08-06 21:21:00,94.9,61.3,29.64,South,181,9.0,12.0,33,0.00,,---,0.00,0.00,VWS V14.01,2013-08-07 02:21:00,
2013-08-06 21:26:00,94.7,61.2,29.64,ESE,123,5.0,12.0,33,0.00,,---,0.00,0.00,VWS V14.01,2013-08-07 02:26:00,
2013-08-06 21:31:00,94.5,61.8,29.64,South,183,5.0,10.0,34,0.00,,---,0.00,0.00,VWS V14.01,2013-08-07 02:31:00,
2013-08-06 21:36:00,94.5,61.8,29.64,South,169,13.0,13.0,34,0.00,,---,0.00,0.00,VWS V14.01,2013-08-07 02:36:00,
2013-08-06 21:41:00,94.6,61.1,29.64,SE,126,7.0,15.0,33,0.00,,---,0.00,0.00,VWS V14.01,2013-08-07 02:41:00,
2013-08-06 21:46:00,94.7,61.2,29.65,SSE,155,7.0,15.0,33,0.00,,---,0.00,0.00,VWS V14.01,2013-08-07 02:46:00,
2013-08-06 21:51:00,94.6,61.1,29.65,SSE,154,4.0,15.0,33,0.00,,---,0.00,0.00,VWS V14.01,2013-08-07 02:51:00,
2013-08-06 21:56:00,94.5,61.0,29.65,SE,131,4.0,15.0,33,0.00,,---,0.00,0.00,VWS V14.01,2013-08-07 02:56:00,
2013-08-06 22:01:00,94.2,61.6,29.65,SSE,163,6.0,11.0,34,0.00,,---,0.00,0.00,VWS V14.01,2013-08-07 03:01:00,
2013-08-06 22:06:00,93.8,61.2,29.65,SSE,161,7.0,11.0,34,0.00,,---,0.00,0.00,VWS V14.01,2013-08-07 03:06:00,
2013-08-06 22:11:00,93.5,61.8,29.65,SE,142,4.0,11.0,35,0.00,,---,0.00,0.00,VWS V14.01,2013-08-07 03:11:00,
2013-08-06 22:16:00,93.2,61.5,29.65,SSE,158,5.0,11.0,35,0.00,,---,0.00,0.00,VWS V14.01,2013-08-07 03:16:00,
2013-08-06 22:21:00,92.9,61.2,29.65,ESE,123,9.0,11.0,35,0.00,,---,0.00,0.00,VWS V14.01,2013-08-07 03:21:00,
2013-08-06 22:26:00,92.6,61.8,29.66,SSE,163,5.0,11.0,36,0.00,,---,0.00,0.00,VWS V14.01,2013-08-07 03:26:00,
2013-08-06 22:31:00,92.8,62.0,29.66,SSE,156,5.0,11.0,36,0.00,,---,0.00,0.00,VWS V14.01,2013-08-07 03:31:00,
2013-08-06 22:36:00,93.0,62.1,29.66,SSE,159,9.0,12.0,36,0.00,,---,0.00,0.00,VWS V14.01,2013-08-07 03:36:00,
2013-08-06 22:41:00,92.9,62.0,29.67,SSE,155,5.0,12.0,36,0.00,,---,0.00,0.00,VWS V14.01,2013-08-07 03:41:00,
2013-08-06 22:46:00,92.9,62.0,29.67,SSE,156,5.0,13.0,36,0.00,,---,0.00,0.00,VWS V14.01,2013-08-07 03:46:00,
2013-08-06 22:51:00,92.7,61.9,29.67,SSE,148,9.0,13.0,36,0.00,,---,0.00,0.00,VWS V14.01,2013-08-07 03:51:00,
2013-08-06 22:56:00,92.5,61.7,29.67,ESE,121,8.0,13.0,36,0.00,,---,0.00,0.00,VWS V14.01,2013-08-07 03:56:00,
2013-08-06 23:01:00,92.3,62.3,29.67,SSE,155,6.0,13.0,37,0.00,,---,0.00,0.00,VWS V14.01,2013-08-07 04:01:00,
2013-08-06 23:06:00,92.2,62.2,29.67,South,171,5.0,13.0,37,0.00,,---,0.00,0.00,VWS V14.01,2013-08-07 04:06:00,
2013-08-06 23:11:00,92.0,62.0,29.66,SE,146,11.0,13.0,37,0.00,,---,0.00,0.00,VWS V14.01,2013-08-07 04:11:00,
2013-08-06 23:16:00,91.8,61.8,29.67,SE,141,6.0,13.0,37,0.00,,---,0.00,0.00,VWS V14.01,2013-08-07 04:16:00,
2013-08-06 23:21:00,91.7,62.5,29.67,South,173,7.0,13.0,38,0.00,,---,0.00,0.00,VWS V14.01,2013-08-07 04:21:00,
2013-08-06 23:26:00,91.6,62.4,29.67,South,170,12.0,14.0,38,0.00,,---,0.00,0.00,VWS V14.01,2013-08-07 04:26:00,
2013-08-06 23:31:00,91.5,62.3,29.67,South,172,7.0,9.0,38,0.00,,---,0.00,0.00,VWS V14.01,2013-08-07 04:31:00,
2013-08-06 23:36:00,91.3,62.2,29.67,SSE,154,5.0,11.0,38,0.00,,---,0.00,0.00,VWS V14.01,2013-08-07 04:36:00,
2013-08-06 23:41:00,91.1,62.7,29.67,SSE,161,7.0,11.0,39,0.00,,---,0.00,0.00,VWS V14.01,2013-08-07 04:41:00,
2013-08-06 23:46:00,91.0,62.6,29.67,SSE,159,7.0,11.0,39,0.00,,---,0.00,0.00,VWS V14.01,2013-08-07 04:46:00,
2013-08-06 23:51:00,90.8,62.5,29.67,SE,134,8.0,12.0,39,0.00,,---,0.00,0.00,VWS V14.01,2013-08-07 04:51:00,
2013-08-06 23:56:00,90.8,62.5,29.67,SE,144,13.0,14.0,39,0.00,,---,0.00,0.00,VWS V14.01,2013-08-07 04:56:00,